Location: *
(47.3000°N, 8.1000°E)
Time: 22:34:31
(UTC+00:00)

Daily predictions for brighter satellites

Satellite Brightness Start Highest point End
(mag) Time Altitude Azimuth Time Altitude Azimuth Time Altitude Azimuth
Cosmos 1503 Rocket 4.2 17:03:39 10° NNW 17:08:40 48° ENE 17:13:39 10° SE
Unknown 4.2 17:05:04 10° SSW 17:08:59 43° SE 17:12:56 10° ENE
Unknown 4.1 17:05:12 10° SW 17:09:10 46° SE 17:13:09 10° ENE
Cosmos 332 Rocket 4.0 17:05:14 10° SSW 17:10:04 78° WNW 17:14:58 10° NNE
Unknown 4.1 17:06:48 10° SW 17:10:46 46° SE 17:14:46 10° ENE
CZ-4C R/B 3.0 17:03:45 10° NW 17:10:53 82° NE 17:19:05 10° SE
Falcon 9 debris 4.3 17:08:17 10° W 17:11:29 34° N 17:14:42 10° ENE
YAOGAN 6 3.2 17:08:56 10° SE 17:12:20 36° ENE 17:15:43 10° N
Unknown 4.3 17:09:11 10° W 17:12:29 37° NNW 17:15:47 10° ENE
Unknown 4.1 17:09:52 10° SW 17:13:49 45° SE 17:17:47 10° ENE
SKYMED 2 4.0 17:09:52 10° NNE 17:14:00 41° E 17:18:05 10° S
GP-B 4.1 17:10:59 10° N 17:15:19 52° W 17:19:37 10° SSW
Unknown 4.0 17:13:10 10° SW 17:17:08 47° SE 17:21:08 10° ENE
ATLAS 5 CENTAUR R/B 1.8 17:14:37 10° SSW 17:18:44 53° ESE 17:23:20 10° NE
Unknown 4.0 17:14:52 10° SW 17:18:51 49° SE 17:22:52 10° ENE
Unknown 4.0 17:16:27 10° SW 17:20:27 50° SE 17:24:29 10° ENE
YAOGAN 1 3.0 17:17:07 10° SE 17:21:11 42° ENE 17:25:17 10° N
H-2A R/B 4.0 17:20:12 10° ENE 17:21:30 11° NE 17:22:49 10° NE
Unknown 3.9 17:18:08 10° SW 17:22:10 51° SE 17:26:12 10° ENE
Unknown 4.3 17:24:08 10° WNW 17:26:53 28° N 17:29:30 11° ENE
SL-4 R/B 1.8 17:24:03 10° WNW 17:28:01 88° NNE 17:31:39 10° ESE
Gbstr 26 Del rocket 4.3 17:22:26 10° W 17:28:08 58° N 17:34:51 11° E
Unknown 3.7 17:24:40 10° SW 17:28:43 63° SE 17:32:40 11° ENE
Unknown 3.8 17:24:42 10° SW 17:28:45 57° SE 17:32:43 11° ENE
Unknown 3.8 17:26:20 10° SW 17:30:24 59° SE 17:34:17 11° ENE
Cosmos 2263 Rocket 3.6 17:26:36 10° WSW 17:31:56 40° NW 17:37:16 10° NNE
Unknown 3.7 17:28:01 10° SW 17:32:06 60° SE 17:35:55 12° ENE
EO 1 Delta rocket 4.3 17:28:33 10° SE 17:32:51 39° ENE 17:37:15 10° N
Okean-O 3.6 17:28:50 10° S 17:33:09 52° W 17:37:30 10° NNW
CSL-04 Rocket 3.7 17:27:54 10° SSE 17:33:22 63° ENE 17:38:50 10° N
Unknown 3.7 17:29:39 10° SW 17:33:44 62° SE 17:37:30 12° ENE
CZ-2D R/B 4.0 17:31:46 10° SE 17:35:11 31° ENE 17:38:38 10° N
Unknown 3.7 17:31:16 10° SW 17:35:21 63° SE 17:39:04 12° ENE
NOSS 2-1 (E) 4.5 17:30:13 10° NW 17:35:41 78° NE 17:43:19 10° SE
Cosmos 1726 Rocket 3.7 17:32:01 10° SSE 17:36:16 50° E 17:40:32 10° NNE
Cosmos 2239 Rocket 4.4 17:31:07 10° N 17:37:18 71° E 17:43:24 10° SSE
Cosmos 1271 Rocket 2.7 17:33:45 10° N 17:37:42 67° ENE 17:41:40 10° SSE
Unknown 3.7 17:34:38 10° SW 17:38:45 67° SSE 17:42:20 13° ENE
Cosmos 724 4.4 17:33:50 10° SSW 17:39:59 86° SE 17:46:04 10° NE
Starlink (trailer) 3.6 17:36:16 10° SW 17:40:22 69° SSE 17:43:54 14° ENE
BREEZE M DEB (TANK) 1.7 17:38:39 10° WNW 17:40:50 82° NNE 17:44:18 14° ESE
Unknown 3.6 17:37:56 10° SW 17:42:03 70° SSE 17:45:31 14° ENE
Cosmos 1605 Rocket 4.4 17:37:06 10° N 17:42:55 39° ENE 17:48:37 10° SE
Cosmos 1821 Rocket 3.9 17:36:57 10° N 17:43:04 86° E 17:49:14 10° S
Unknown 3.5 17:39:19 10° WSW 17:43:23 90° NNW 17:46:49 14° ENE
Cosmos 2058 Rocket 3.5 17:39:27 10° SSE 17:43:30 39° E 17:47:34 10° NNE
Cosmos 1953 2.3 17:39:28 10° S 17:43:31 86° ESE 17:47:37 10° N
Unknown 3.6 17:39:33 10° SW 17:43:41 72° SSE 17:47:04 15° ENE
Lacrosse 5 3.1 17:39:54 10° NW 17:44:19 29° N 17:47:59 13° ENE
Shenzhou-11 Module 3.6 17:43:17 10° SSW 17:45:22 19° SSE 17:46:27 15° SE
Cosmos 1833 Rocket 3.8 17:42:02 10° N 17:46:41 26° NE 17:49:44 17° E
Cosmos 1758 4.4 17:44:37 10° SSW 17:48:28 48° WNW 17:52:20 10° N
Cosmos 1703 3.7 17:46:18 10° N 17:50:01 38° ENE 17:53:42 10° SE
Unknown 3.6 17:46:10 10° SW 17:50:19 79° SSE 17:53:28 17° ENE
Nadezhda 3 Rocket 4.1 17:44:04 10° S 17:50:20 87° WNW 17:56:43 10° N
Unknown 3.6 17:46:15 10° SW 17:50:23 80° SSE 17:53:32 17° ENE
Unknown 3.6 17:47:02 10° SW 17:51:11 80° SSE 17:54:17 17° ENE
COBE Rocket 4.3 17:46:29 10° N 17:51:41 73° WNW 17:56:47 10° SSW
Cosmos 2228 2.9 17:49:01 10° S 17:53:25 80° E 17:57:47 10° NNE
Cosmos 1626 4.2 17:51:08 10° NNW 17:54:29 32° W 17:57:49 10° SSW
Unknown 3.5 17:51:10 10° WSW 17:55:19 85° SSE 17:58:16 19° ENE
Unknown 3.5 17:51:11 10° WSW 17:55:19 85° SSE 17:58:17 19° ENE
Unknown 3.6 17:52:55 10° WSW 17:57:04 89° SSE 17:59:59 19° ENE
COSMOS 2406 3.4 17:51:56 10° NNW 17:57:37 54° ENE 18:02:53 12° SE
Cosmos 1535 Rocket 4.4 17:51:24 10° N 17:57:39 74° E 18:03:48 10° SSE
Envisat 3.9 17:54:23 10° S 17:59:19 52° W 18:04:19 10° NNW
Cosmos 1934 Rocket 4.0 17:53:25 10° N 17:59:46 76° E 18:06:07 10° SSE
Unknown 3.6 17:56:14 10° WSW 18:00:23 88° NNW 18:03:09 21° ENE
Unknown 3.6 17:56:53 10° WSW 18:01:01 89° NW 18:03:45 21° ENE
Unknown 3.6 17:57:50 10° WSW 18:01:59 88° NNW 18:04:41 21° ENE
Cosmos 2082 Rocket 3.4 17:57:21 10° N 18:02:00 25° NE 18:04:05 20° ENE
COSMO-SKYMED 1 3.0 17:57:51 10° N 18:02:10 65° WNW 18:06:28 10° SSW
Cosmos 1726 2.1 17:59:37 10° S 18:03:12 53° E 18:06:46 10° NNE
Meteor 1-11 4.3 17:59:18 10° N 18:04:59 57° ENE 18:10:39 10° SSE
Unknown 3.6 18:01:02 10° WSW 18:05:11 87° NNW 18:07:45 23° ENE
Cosmos 1939 Rocket 2.8 18:01:22 10° SSE 18:05:15 60° ENE 18:09:14 10° N
Cosmos 921 Rocket 3.0 18:01:18 10° S 18:05:46 65° ESE 18:10:13 10° NNE
Cosmos 292 Rocket 4.1 18:01:48 10° S 18:06:14 41° ESE 18:10:41 10° NE
DMSP B5D1-3 4.5 18:01:42 10° NNE 18:06:48 61° ESE 18:11:52 10° S
Unknown 3.6 18:04:28 10° WSW 18:08:37 82° NNW 18:11:03 24° ENE
Cosmos 482 Debris 4.1 18:03:31 10° WNW 18:08:39 87° SSW 18:10:07 32° ESE
Unknown 3.6 18:06:07 10° WSW 18:10:16 80° NNW 18:12:38 25° ENE
Unknown 3.6 18:07:49 10° WSW 18:11:59 78° NNW 18:14:16 26° ENE
Cosmos 1356 3.3 18:10:04 10° S 18:13:27 62° E 18:16:52 10° NNE
Unknown 3.7 18:09:29 10° WSW 18:13:38 77° NNW 18:15:52 26° ENE
Lacrosse 5 rocket 1.6 18:11:37 10° WNW 18:15:20 59° SW 18:17:43 22° SSE
Cosmos 1953 Rocket 4.4 18:11:53 10° NNW 18:16:11 53° W 18:20:24 10° S
Unknown 3.7 18:12:47 10° WSW 18:16:56 74° NNW 18:19:01 28° NE
USA 116 3.8 18:15:06 10° N 18:18:10 57° WNW 18:21:19 10° SSW
Unknown 3.7 18:14:32 10° WSW 18:18:41 72° NNW 18:20:42 29° NE
Unknown 3.7 18:16:08 10° WSW 18:20:17 71° NNW 18:22:15 30° NE
Cosmos 2084 3.5 18:16:14 10° SW 18:20:47 85° NW 18:24:06 18° NE
Unknown 3.8 18:17:45 10° WSW 18:21:53 71° NNW 18:23:47 31° NE
CZ-4 R/B 3.2 18:18:32 10° SSW 18:22:20 35° W 18:26:12 10° NNW
Unknown 3.8 18:18:25 10° WSW 18:22:33 69° NNW 18:24:25 31° NE
Unknown 3.8 18:20:56 10° WSW 18:25:04 71° NNW 18:26:49 33° NE
FALCON 9 DEB 4.4 18:22:31 10° WNW 18:25:41 31° N 18:26:23 28° NNE
Unknown 4.4 18:23:02 10° WNW 18:26:14 31° N 18:27:00 28° NNE
Meteor 1-16 Rocket 4.3 18:21:24 10° SSW 18:27:01 75° WNW 18:32:29 10° N
Cosmos 1242 Rocket 3.1 18:23:59 10° NNW 18:27:38 60° W 18:31:15 10° S
Unknown 3.8 18:24:18 10° WSW 18:28:26 68° NNW 18:30:02 35° NE
Cosmos 1328 4.1 18:25:36 10° NNW 18:29:36 66° W 18:33:30 10° S
Unknown 3.8 18:25:57 10° WSW 18:30:04 67° NNW 18:31:36 36° NE
Cosmos 1844 Rocket 3.3 18:25:10 10° SW 18:30:44 58° WNW 18:36:19 10° NNE
Unknown 4.4 18:27:15 10° W 18:30:59 42° NNW 18:32:18 30° NNE
ADEOS Rocket 3.9 18:24:07 10° NNE 18:31:12 37° E 18:37:55 10° SSE
Unknown 3.3 18:29:18 10° WNW 18:31:23 48° NW 18:31:23 48° NW
Unknown 3.9 18:27:52 10° WSW 18:31:59 62° NNW 18:33:29 36° NE
Unknown 3.9 18:29:16 10° WSW 18:33:24 64° NNW 18:34:47 38° NE
Cosmos 1908 3.1 18:29:34 10° S 18:33:29 83° E 18:37:25 10° N
Cosmos 1153 Rocket 4.4 18:27:24 10° N 18:33:29 60° ENE 18:38:15 17° SSE
Unknown 3.9 18:30:59 10° WSW 18:35:06 63° NNW 18:36:25 39° NE
Unknown 4.5 18:32:07 10° W 18:35:42 38° N 18:36:44 31° NNE
Unknown 3.9 18:34:16 10° WSW 18:38:23 61° NNW 18:39:34 41° NE
Unknown 4.0 18:36:00 10° WSW 18:40:06 60° NNW 18:41:14 42° NE
SPOT 3 Rocket 3.7 18:39:51 43° E 18:40:47 48° ENE 18:45:47 10° N
Meteor 2-10 4.2 18:36:22 10° SSW 18:41:28 71° WNW 18:46:31 10° N
Unknown 4.3 18:38:22 10° WNW 18:41:24 33° N 18:41:24 33° N
Unknown 4.0 18:37:40 10° WSW 18:41:46 59° NNW 18:42:49 43° NNE
Ariane Rocket 3.2 18:36:44 10° S 18:41:48 70° WSW 18:46:55 10° NNW
Unknown 4.0 18:39:22 10° W 18:43:27 58° NNW 18:44:26 44° NNE
Cosmos 2278 Rocket 2.3 18:38:38 10° S 18:44:05 51° ESE 18:46:33 31° NE
Cosmos 489 Rocket 4.4 18:39:50 10° SSW 18:46:03 88° ESE 18:52:18 10° NNE
Unknown 4.1 18:42:42 10° W 18:46:47 56° NNW 18:47:37 46° NNE
Cosmos 1844 4.4 18:41:29 10° SW 18:47:05 55° WNW 18:52:47 10° NNE
Unknown 4.1 18:44:29 10° W 18:48:33 54° NNW 18:49:19 46° NNE
USA 238 DEB 4.3 18:42:47 10° S 18:47:26 33° SE 18:47:26 33° SE
Unknown 4.2 18:44:43 10° W 18:48:46 52° NNW 18:49:33 44° NNE
USA 238 4.4 18:42:54 10° S 18:47:27 32° SE 18:47:27 32° SE
Falcon 9 debris 4.4 18:45:53 10° WNW 18:48:41 33° N 18:48:41 33° N
Cosmos 2058 4.5 18:46:12 10° N 18:48:12 24° NNE 18:48:12 24° NNE
Unknown 4.5 18:47:02 10° WNW 18:49:56 32° N 18:49:56 32° N
Unknown 4.2 18:46:18 10° W 18:50:22 52° NNW 18:51:05 45° NNE
Unknown 4.1 18:49:20 10° W 18:53:23 53° NNW 18:53:57 48° NNE
Unknown 4.1 18:52:41 10° W 18:56:45 51° NNW 18:57:10 49° N
USA 234 3.7 18:57:30 37° SE 18:57:30 37° SE 19:03:01 10° SSW
Unknown 4.2 18:54:26 10° W 18:58:29 50° NNW 18:58:49 49° N
H-2A R/B 2.1 18:59:39 59° E 18:59:48 59° ENE 19:05:06 10° N
Unknown 4.2 18:56:03 10° W 19:00:05 50° NNW 19:00:21 49° N
SJ-11-01 4.2 18:59:52 49° S 19:01:08 83° WSW 19:05:52 10° NNW
Cosmos 1777 Rocket 4.2 18:56:15 10° NNW 19:01:27 69° WSW 19:03:37 35° S
Unknown 4.2 18:57:46 10° W 19:01:49 49° NNW 19:02:00 49° N
ATLAS 5 CENTAUR R/B 3.4 18:59:47 10° W 19:03:40 29° NNW 19:07:08 14° NNE
SL-4 R/B 3.9 19:04:25 10° W 19:07:10 20° SW 19:07:19 20° SW
Unknown 4.4 19:04:20 10° W 19:08:10 44° NNW 19:08:10 44° NNW
Unknown 4.4 19:04:27 10° W 19:08:22 47° NNW 19:08:22 47° NNW
Unknown 4.4 19:06:06 10° W 19:09:57 46° NNW 19:09:57 46° NNW
CZ-2C R/B 3.7 19:10:54 48° NE 19:10:54 48° NE 19:15:52 10° N
Unknown 4.5 19:07:49 10° W 19:11:35 45° NNW 19:11:35 45° NNW
Cosmos 1076 Rocket 4.2 19:11:31 10° N 19:14:50 50° NNW 19:14:50 50° NNW
Gbstr 26 Del rocket 4.1 19:09:32 10° WNW 19:15:59 80° NNE 19:17:24 60° E
Cosmos 1461 4.0 19:13:24 10° NNW 19:15:58 37° NNW 19:15:58 37° NNW
NOSS 3-3 (A) 4.5 19:12:33 10° NW 19:19:54 67° NE 19:21:23 57° E
NOSS 3-3 (C) 4.5 19:12:39 10° NW 19:20:00 67° NE 19:21:28 57° E
SJ-6B 4.5 19:25:01 29° NNW 19:25:01 29° NNW 19:27:01 10° NNW
Lacrosse 5 2.4 19:23:04 10° NW 19:27:11 51° NNW 19:27:11 51° NNW
BREEZE-M DEB (TANK) 3.6 19:21:47 10° WSW 19:27:40 45° SW 19:27:40 45° SW
Cosmos 1833 Rocket 2.8 19:25:31 10° NNW 19:31:06 66° WSW 19:31:28 64° SW
Cosmos 1459 Rocket 3.9 19:25:31 10° N 19:31:43 88° W 19:32:13 77° S
Resurs 01 Rocket 3.7 19:35:40 21° N 19:35:40 21° N 19:37:09 10° N
ARGOS 3.2 19:34:27 74° NW 19:34:27 74° NW 19:39:32 10° NNW
Cosmos 1802 Rocket 3.9 19:32:34 10° N 19:38:55 86° NNE 19:38:55 86° NNE
Cosmos 2082 Rocket 2.5 19:40:57 10° NNW 19:45:57 63° WNW 19:45:57 63° WNW
ATLAS CENTAUR R/B 4.4 19:46:13 10° N 19:46:39 11° N 19:46:39 11° N
Cosmos 2173 Rocket 4.2 19:44:58 10° NNW 19:51:13 64° W 19:51:41 62° WSW
SJ 16-02 4.0 19:54:00 10° NNW 19:54:38 14° N 19:54:38 14° N
ADEOS Rocket 4.0 20:09:21 10° N 20:16:55 56° WNW 20:24:06 10° SW
Cosmos 2278 Rocket 3.8 20:23:25 10° WSW 20:28:26 31° NW 20:28:36 31° NW
H-2A R/B 4.3 20:40:18 21° W 20:40:18 21° W 20:43:40 10° NW
